EA3CTN-13 Weather Reports


Display with metric or nautical units.
time (UTC)temp
F
wind
direction
speed
MPH
gust
MPH
rain 1hr
in
rain 24hr
in
rain mn
in
humidity
%
barometer
mb
20260902112051 85 0.0 0.0 0.00 0.00 0.00 38 1021.5
20260902111251 85 0.0 0.0 0.00 0.00 0.00 38 1021.6
20260902110451 85 0.0 0.0 0.00 0.00 0.00 38 1021.5
20260902105651 84 0.0 0.0 0.00 0.00 0.00 40 1021.5
20260902104851 84 0.0 0.0 0.00 0.00 0.00 40 1021.4
20260902104051 84 0.0 0.0 0.00 0.00 0.00 42 1021.5
20260902103251 84 0.0 0.0 0.00 0.00 0.00 42 1021.4
20260902102451 84 0.0 0.0 0.00 0.00 0.00 43 1021.5
20260902101651 84 0.0 0.0 0.00 0.00 0.00 43 1021.5
20260902100851 84 0.0 0.0 0.00 0.00 0.00 43 1021.4
20260902100051 84 0.0 0.0 0.00 0.00 0.00 44 1021.2
20260902095251 84 0.0 0.0 0.00 0.00 0.00 44 1021.2
20260902094451 84 0.0 0.0 0.00 0.00 0.00 43 1021.2
20260902093651 84 0.0 0.0 0.00 0.00 0.00 47 1021.3
20260902092051 83 0.0 0.0 0.00 0.00 0.00 48 1021.0
20260902091251 83 0.0 0.0 0.00 0.00 0.00 47 1021.0
20260902090451 83 0.0 0.0 0.00 0.00 0.00 47 1020.9
20260902085651 83 0.0 0.0 0.00 0.00 0.00 50 1020.8
20260902084851 82 0.0 0.0 0.00 0.00 0.00 48 1020.8
20260902081916 83 0.0 0.0 0.00 0.00 0.00 48 1020.6
20260901215515 82 0.0 0.0 0.00 0.00 0.00 53 1019.6
20260901214715 82 0.0 0.0 0.00 0.00 0.00 53 1019.6
20260901213915 82 0.0 0.0 0.00 0.00 0.00 53 1019.5
20260901213115 82 0.0 0.0 0.00 0.00 0.00 53 1019.5
20260901212315 82 0.0 0.0 0.00 0.00 0.00 53 1019.4
20260901211515 82 0.0 0.0 0.00 0.00 0.00 52 1019.3
20260901210715 82 0.0 0.0 0.00 0.00 0.00 52 1019.3
20260901205915 83 0.0 0.0 0.00 0.00 0.00 52 1019.2
20260901205115 83 0.0 0.0 0.00 0.00 0.00 52 1019.1
20260901204315 83 0.0 0.0 0.00 0.00 0.00 52 1019.0
20260901203515 83 0.0 0.0 0.00 0.00 0.00 51 1019.0
20260901202715 83 0.0 0.0 0.00 0.00 0.00 51 1019.1
20260901201915 83 0.0 0.0 0.00 0.00 0.00 51 1019.1
20260901201115 83 0.0 0.0 0.00 0.00 0.00 50 1018.9
20260901200315 83 0.0 0.0 0.00 0.00 0.00 49 1018.9
20260901195515 83 0.0 0.0 0.00 0.00 0.00 50 1018.7
20260901194715 83 0.0 0.0 0.00 0.00 0.00 50 1018.5
20260901193915 83 0.0 0.0 0.00 0.00 0.00 50 1018.4
20260901193115 83 0.0 0.0 0.00 0.00 0.00 49 1018.3
20260901192315 83 0.0 0.0 0.00 0.00 0.00 49 1018.4
20260901191515 83 0.0 0.0 0.00 0.00 0.00 49 1018.3
20260901190715 83 0.0 0.0 0.00 0.00 0.00 49 1018.3
20260901185915 84 0.0 0.0 0.00 0.00 0.00 49 1018.2
20260901185115 84 0.0 0.0 0.00 0.00 0.00 49 1018.2
20260901184315 84 0.0 0.0 0.00 0.00 0.00 49 1018.0
20260901183515 84 0.0 0.0 0.00 0.00 0.00 48 1018.1
20260901182715 84 0.0 0.0 0.00 0.00 0.00 48 1017.7
20260901181915 84 0.0 0.0 0.00 0.00 0.00 48 1017.7
20260901181115 84 0.0 0.0 0.00 0.00 0.00 48 1017.8
20260901180315 84 0.0 0.0 0.00 0.00 0.00 48 1018.0
20260901175515 85 0.0 0.0 0.00 0.00 0.00 48 1018.2
20260901174715 85 0.0 0.0 0.00 0.00 0.00 47 1018.4
20260901173915 85 0.0 0.0 0.00 0.00 0.00 47 1018.6
20260901173115 85 0.0 0.0 0.00 0.00 0.00 46 1018.4
20260901172315 86 0.0 0.0 0.00 0.00 0.00 46 1018.5
20260901171515 86 0.0 0.0 0.00 0.00 0.00 46 1018.7
20260901170715 86 0.0 0.0 0.00 0.00 0.00 45 1018.7
20260901165915 86 0.0 0.0 0.00 0.00 0.00 45 1018.9
20260901165115 86 0.0 0.0 0.00 0.00 0.00 45 1018.7